This is the latest recevied weather packets stored in our database for station/object SA3ARQ-13. If no packets are shown the sender has not sent any weather packets the latest 10 day(s).
| Time | Temp. | Humidity | Pressure | Rain* | Wind** | Luminosity | Snow |
|---|---|---|---|---|---|---|---|
| 1777181794 | 6.11° C | 45% | 1013.2 hPa | - | - | - | - |
| 1777180894 | 5.56° C | 46% | 1013 hPa | - | - | - | - |
| 1777179994 | 5° C | 47% | 1012.8 hPa | - | - | - | - |
| 1777179094 | 5° C | 47% | 1012.6 hPa | - | - | - | - |
| 1777178194 | 4.44° C | 48% | 1012.4 hPa | - | - | - | - |
| 1777177294 | 3.89° C | 48% | 1012.1 hPa | - | - | - | - |
| 1777176394 | 3.89° C | 50% | 1011.8 hPa | - | - | - | - |
| 1777175494 | 3.33° C | 50% | 1011.6 hPa | - | - | - | - |
| 1777174594 | 3.33° C | 49% | 1011.3 hPa | - | - | - | - |
| 1777173694 | 3.33° C | 50% | 1011.1 hPa | - | - | - | - |
| 1777172794 | 3.89° C | 49% | 1010.9 hPa | - | - | - | - |
| 1777171894 | 3.89° C | 49% | 1010.9 hPa | - | - | - | - |
| 1777170993 | 3.89° C | 49% | 1010.6 hPa | - | - | - | - |
| 1777170093 | 3.89° C | 49% | 1010.3 hPa | - | - | - | - |
| 1777169193 | 3.89° C | 49% | 1010 hPa | - | - | - | - |
| 1777168293 | 3.89° C | 49% | 1009.9 hPa | - | - | - | - |
| 1777167393 | 4.44° C | 49% | 1009.6 hPa | - | - | - | - |
| 1777166493 | 4.44° C | 49% | 1009.4 hPa | - | - | - | - |
| 1777165593 | 4.44° C | 49% | 1009.2 hPa | - | - | - | - |
| 1777164693 | 4.44° C | 49% | 1009 hPa | - | - | - | - |
| 1777163793 | 4.44° C | 49% | 1008.7 hPa | - | - | - | - |
| 1777162893 | 4.44° C | 49% | 1008.4 hPa | - | - | - | - |
| 1777161993 | 5° C | 49% | 1008.3 hPa | - | - | - | - |
| 1777161093 | 5° C | 49% | 1008.1 hPa | - | - | - | - |
| 1777160193 | 5° C | 49% | 1008 hPa | - | - | - | - |
* Rain since midnight (hover to see other rain measurements)
** Current wind speed in m/s (hover to see current wind gust speed)